• In Colombia
  • List of Countries
  • For 7 days
  • Water Temperature
  • Weather Map
  • Weather Widgets
  • user-avatar
    Login

    Hourly Weather Fier

    Today, 15 December, Sunday

    Time Temperature Precipitation Wind Pressure Humidity
    00:00 +10°C° 0 mm 2 mps 757 mmHg 85%
    01:00 +10°C° 0 mm 2 mps 757 mmHg 84%
    02:00 +10°C° 0 mm 2 mps 758 mmHg 83%
    03:00 +10°C° 0 mm 2 mps 758 mmHg 82%
    04:00 +10°C° 0 mm 2 mps 759 mmHg 80%
    05:00 +10°C° 0 mm 2 mps 759 mmHg 79%
    06:00 +10°C° 0 mm 2 mps 760 mmHg 77%
    07:00 +9°C° 0 mm 2 mps 760 mmHg 75%
    08:00 +12°C° 0 mm 2 mps 761 mmHg 70%
    09:00 +13°C° 0 mm 1 mps 761 mmHg 65%
    10:00 +15°C° 0 mm 1 mps 762 mmHg 61%
    11:00 +16°C° 0 mm 1 mps 762 mmHg 59%
    12:00 +16°C° 0 mm 1 mps 762 mmHg 58%
    13:00 +18°C° 0 mm 1 mps 762 mmHg 56%
    14:00 +16°C° 0 mm 1 mps 762 mmHg 60%
    15:00 +15°C° 0 mm 1 mps 763 mmHg 65%
    16:00 +15°C° 0 mm 1 mps 763 mmHg 69%
    17:00 +14°C° 0 mm 1 mps 763 mmHg 70%
    18:00 +14°C° 0 mm 2 mps 764 mmHg 70%
    19:00 +13°C° 0 mm 2 mps 764 mmHg 71%
    20:00 +13°C° 0 mm 2 mps 764 mmHg 71%
    21:00 +12°C° 0 mm 3 mps 765 mmHg 71%
    22:00 +12°C° 0 mm 3 mps 765 mmHg 71%
    23:00 +12°C° 0 mm 3 mps 766 mmHg 71%

    Tomorrow, 16 December, Monday

    Time Temperature Precipitation Wind Pressure Humidity
    00:00 +12°C° 0 mm 3 mps 766 mmHg 72%
    01:00 +12°C° 0 mm 3 mps 766 mmHg 72%
    02:00 +12°C° 0 mm 3 mps 766 mmHg 73%
    03:00 +11°C° 0 mm 3 mps 766 mmHg 73%
    04:00 +11°C° 0 mm 3 mps 766 mmHg 74%
    05:00 +11°C° 0 mm 3 mps 766 mmHg 74%
    06:00 +11°C° 0 mm 3 mps 767 mmHg 74%
    07:00 +11°C° 0 mm 3 mps 767 mmHg 75%
    08:00 +12°C° 0 mm 3 mps 767 mmHg 72%
    09:00 +14°C° 0 mm 3 mps 767 mmHg 68%
    10:00 +16°C° 0 mm 3 mps 767 mmHg 65%
    11:00 +17°C° 0 mm 2 mps 767 mmHg 63%
    12:00 +18°C° 0 mm 2 mps 767 mmHg 61%
    13:00 +19°C° 0 mm 2 mps 766 mmHg 59%
    14:00 +18°C° 0 mm 2 mps 766 mmHg 63%
    15:00 +17°C° 0 mm 2 mps 766 mmHg 68%
    16:00 +16°C° 0 mm 2 mps 766 mmHg 72%
    17:00 +15°C° 0 mm 2 mps 766 mmHg 74%
    18:00 +15°C° 0 mm 2 mps 767 mmHg 76%
    19:00 +13°C° 0 mm 3 mps 767 mmHg 77%
    20:00 +13°C° 0 mm 3 mps 767 mmHg 78%
    21:00 +12°C° 0 mm 3 mps 767 mmHg 80%
    22:00 +12°C° 0 mm 3 mps 767 mmHg 81%
    23:00 +12°C° 0 mm 3 mps 767 mmHg 81%

    Day after tomorrow, 17 December, Tuesday

    Time Temperature Precipitation Wind Pressure Humidity
    00:00 +12°C° 0 mm 3 mps 767 mmHg 81%
    01:00 +12°C° 0 mm 3 mps 767 mmHg 82%
    02:00 +11°C° 0 mm 3 mps 767 mmHg 82%
    03:00 +11°C° 0 mm 3 mps 766 mmHg 82%
    04:00 +11°C° 0 mm 3 mps 766 mmHg 82%
    05:00 +11°C° 0 mm 3 mps 766 mmHg 82%
    06:00 +11°C° 0 mm 3 mps 766 mmHg 81%
    07:00 +11°C° 0 mm 3 mps 766 mmHg 81%
    08:00 +12°C° 0 mm 3 mps 767 mmHg 77%
    09:00 +14°C° 0 mm 3 mps 767 mmHg 73%
    10:00 +16°C° 0 mm 3 mps 767 mmHg 69%
    11:00 +17°C° 0 mm 3 mps 767 mmHg 67%
    12:00 +17°C° 0 mm 3 mps 766 mmHg 64%
    13:00 +18°C° 0 mm 3 mps 766 mmHg 62%
    14:00 +17°C° 0 mm 3 mps 766 mmHg 66%
    15:00 +16°C° 0 mm 3 mps 766 mmHg 70%
    16:00 +16°C° 0 mm 3 mps 766 mmHg 74%
    17:00 +14°C° 0 mm 3 mps 766 mmHg 76%
    18:00 +13°C° 0 mm 3 mps 766 mmHg 77%
    19:00 +13°C° 0 mm 3 mps 766 mmHg 79%
    20:00 +12°C° 0 mm 3 mps 766 mmHg 80%
    21:00 +12°C° 0 mm 3 mps 767 mmHg 81%
    22:00 +12°C° 0 mm 3 mps 767 mmHg 82%
    23:00 +12°C° 0 mm 3 mps 767 mmHg 82%

    18 December, Wednesday

    Time Temperature Precipitation Wind Pressure Humidity
    00:00 +11°C° 0 mm 3 mps 766 mmHg 82%
    01:00 +11°C° 0 mm 3 mps 766 mmHg 82%
    02:00 +11°C° 0 mm 3 mps 766 mmHg 82%
    03:00 +11°C° 0 mm 3 mps 766 mmHg 81%
    04:00 +11°C° 0 mm 3 mps 766 mmHg 81%
    05:00 +11°C° 0 mm 3 mps 766 mmHg 80%
    06:00 +11°C° 0 mm 3 mps 766 mmHg 79%
    07:00 +11°C° 0 mm 3 mps 766 mmHg 78%
    08:00 +12°C° 0 mm 3 mps 766 mmHg 74%
    09:00 +13°C° 0 mm 3 mps 766 mmHg 70%
    10:00 +16°C° 0 mm 3 mps 766 mmHg 66%
    11:00 +17°C° 0 mm 3 mps 765 mmHg 63%
    12:00 +18°C° 0 mm 3 mps 765 mmHg 60%
    13:00 +19°C° 0 mm 3 mps 765 mmHg 58%
    14:00 +18°C° 0 mm 3 mps 765 mmHg 62%
    15:00 +17°C° 0 mm 3 mps 765 mmHg 66%
    16:00 +16°C° 0 mm 3 mps 765 mmHg 70%
    17:00 +16°C° 0 mm 3 mps 765 mmHg 71%
    18:00 +14°C° 0 mm 4 mps 765 mmHg 72%
    19:00 +14°C° 0 mm 4 mps 765 mmHg 74%
    20:00 +13°C° 0 mm 4 mps 765 mmHg 74%
    21:00 +13°C° 0 mm 4 mps 765 mmHg 74%
    22:00 +13°C° 0 mm 4 mps 765 mmHg 74%
    23:00 +13°C° 0.1 mm 5 mps 764 mmHg 74%

    19 December, Thursday

    Time Temperature Precipitation Wind Pressure Humidity
    00:00 +13°C° 0.1 mm 5 mps 764 mmHg 74%
    01:00 +13°C° 0.1 mm 5 mps 764 mmHg 74%
    02:00 +13°C° 0.1 mm 5 mps 764 mmHg 74%
    03:00 +13°C° 0.1 mm 5 mps 763 mmHg 74%
    04:00 +13°C° 0.1 mm 5 mps 763 mmHg 74%
    05:00 +13°C° 0.3 mm 5 mps 763 mmHg 76%
    06:00 +13°C° 0.3 mm 5 mps 763 mmHg 77%
    07:00 +13°C° 0.3 mm 5 mps 763 mmHg 78%
    08:00 +13°C° 1.3 mm 5 mps 763 mmHg 81%
    09:00 +13°C° 1.3 mm 5 mps 763 mmHg 83%
    10:00 +14°C° 1.3 mm 5 mps 763 mmHg 86%
    11:00 +14°C° 1.5 mm 5 mps 763 mmHg 86%
    12:00 +14°C° 1.5 mm 5 mps 762 mmHg 86%
    13:00 +14°C° 1.5 mm 5 mps 762 mmHg 86%
    14:00 +14°C° 0.2 mm 5 mps 762 mmHg 85%
    15:00 +14°C° 0.2 mm 5 mps 762 mmHg 84%
    16:00 +14°C° 0.2 mm 5 mps 762 mmHg 83%
    17:00 +13°C° 0.5 mm 5 mps 762 mmHg 82%
    18:00 +13°C° 0.5 mm 5 mps 762 mmHg 82%
    19:00 +13°C° 0.5 mm 5 mps 762 mmHg 82%
    20:00 +13°C° 0.6 mm 5 mps 762 mmHg 81%
    21:00 +13°C° 0.6 mm 5 mps 762 mmHg 81%
    22:00 +13°C° 0.6 mm 5 mps 762 mmHg 80%
    23:00 +12°C° 0.3 mm 5 mps 762 mmHg 81%

    20 December, Friday

    Time Temperature Precipitation Wind Pressure Humidity
    00:00 +12°C° 0.3 mm 4 mps 762 mmHg 83%
    01:00 +12°C° 0.3 mm 4 mps 762 mmHg 84%
    02:00 +12°C° 0.2 mm 4 mps 762 mmHg 84%
    03:00 +12°C° 0.2 mm 4 mps 761 mmHg 84%
    04:00 +12°C° 0.2 mm 3 mps 761 mmHg 85%
    05:00 +13°C° 0.5 mm 4 mps 761 mmHg 86%
    06:00 +13°C° 0.5 mm 4 mps 761 mmHg 87%
    07:00 +13°C° 0.5 mm 4 mps 761 mmHg 88%
    08:00 +14°C° 0.3 mm 5 mps 762 mmHg 85%
    09:00 +15°C° 0.3 mm 5 mps 762 mmHg 82%
    10:00 +16°C° 0.3 mm 6 mps 762 mmHg 79%
    11:00 +16°C° 0.2 mm 7 mps 761 mmHg 77%
    12:00 +17°C° 0.2 mm 7 mps 761 mmHg 74%
    13:00 +17°C° 0.2 mm 8 mps 760 mmHg 72%
    14:00 +17°C° 0 mm 8 mps 760 mmHg 74%
    15:00 +16°C° 0 mm 7 mps 760 mmHg 76%
    16:00 +15°C° 0 mm 7 mps 760 mmHg 78%
    17:00 +15°C° 0 mm 7 mps 760 mmHg 80%
    18:00 +14°C° 0 mm 7 mps 760 mmHg 81%
    19:00 +14°C° 0 mm 7 mps 759 mmHg 83%
    20:00 +14°C° 0 mm 7 mps 759 mmHg 82%
    21:00 +12°C° 0 mm 7 mps 759 mmHg 82%
    22:00 +12°C° 0 mm 7 mps 759 mmHg 82%
    23:00 +12°C° 0 mm 8 mps 758 mmHg 82%
    Show more